[[{"header":{"parameterUnit":"m.s-1","parameterCategory":1,"la1":30.2991,"la2":30.254,"lo1":-89.0895,"lo2":-89.0444,"dy":0.0017,"dx":0.0017,"nx":28,"ny":28,"refTime":"2024-03-16T03:00:00:Z","depth":0,"parameterNumber":2,"parameterNumberName":"U-component_of_WINDS"},"data":[0,0,0,0,0,0,0,0,0,0,0,0,0,0,0,0,0,0,0,0,0,0,0,0,0,0,0,0,0,0,0,0,0,0,0,0,0,0,0,0,0,0,0,0,0,0,0,0,0,0,0,0,0,0,0,0,0,0,-4.5085,-4.5086,0,-4.5126,-4.5126,-4.5126,-4.5059,-4.5057,-4.5055,-4.5053,-4.5091,-4.5094,-4.5098,0,0,0,0,0,0,0,0,0,0,0,0,0,-4.4947,-4.495,-4.5085,-4.5086,-4.5086,-4.5126,-4.5126,-4.5127,-4.506,-4.5057,-4.5054,-4.5052,-4.509,-4.5094,-4.5098,0,0,0,0,0,0,0,0,0,0,0,0,0,-4.4999,-4.4951,-4.5085,-4.5058,-4.5056,-4.5125,-4.5126,-4.5127,-4.506,-4.5057,-4.5053,-4.505,-4.5089,-4.5094,-4.5098,-4.5196,0,0,-4.5113,-4.5115,0,0,0,0,0,0,0,0,-4.4996,-4.5004,-4.5061,-4.506,-4.5058,-4.5084,-4.5091,-4.515,-4.5061,-4.5059,-4.5053,-4.5049,-4.5092,-4.5096,-4.5111,-4.5198,-4.52,-4.5113,-4.5116,-4.5118,-4.512,0,0,0,0,0,0,0,-4.4993,-4.5002,-4.5101,-4.5062,-4.506,-4.5042,-4.5046,-4.5102,-4.5094,-4.5058,-4.5054,-4.506,-4.509,-4.5106,-4.5111,-4.52,-4.5113,-4.5117,-4.512,-4.5122,-4.5368,-4.5372,0,0,0,0,0,0,-4.4993,-4.5,-4.51,-4.5102,-4.5018,-4.5048,-4.5052,-4.5079,-4.5093,-4.5092,-4.5062,-4.5056,-4.51,-4.5106,-4.5112,-4.5227,-4.5118,-4.5123,-4.5125,-4.5365,-4.5369,-4.5373,0,0,0,0,0,0,-4.499,-4.5002,-4.5098,-4.505,-4.5061,-4.5054,-4.5085,-4.5082,-4.5098,-4.5096,-4.5094,-4.5081,-4.5098,-4.5106,-4.5176,-4.5228,-4.5125,-4.5129,-4.536,-4.5366,-4.5371,-4.5459,0,0,0,0,0,0,-4.4987,-4.5002,-4.504,-4.5051,-4.5063,-4.5162,-4.5088,-4.5085,-4.5107,-4.5099,-4.5113,-4.5112,-4.5096,-4.5169,-4.5181,-4.5233,-4.5133,-4.5356,-4.5363,-4.5369,-4.5451,-4.5467,-4.548,0,0,0,0,0,-4.4982,-4.5063,-4.5042,-4.5055,-4.5111,-4.5165,-4.5172,-4.5153,-4.5111,-4.5149,-4.5147,-4.5111,-4.522,-4.5177,-4.5189,-4.5243,-4.5352,-4.5361,-4.5369,-4.5445,-4.5464,-4.548,0,0,0,0,0,0,-4.5057,-4.5064,-4.5041,-4.5128,-4.5147,-4.5154,-4.5201,-4.5173,-4.5203,-4.5195,-4.5168,-4.5172,-4.5247,-4.5252,-4.5204,-4.5338,-4.5279,-4.529,-4.5333,-4.5351,-4.5365,-4.5362,-4.5137,0,0,0,0,0,-4.5084,-4.5129,-4.5131,-4.5208,-4.5219,-4.5208,-4.5231,-4.5214,-4.5232,-4.524,-4.5243,-4.5261,-4.5299,-4.5325,-4.536,-4.5451,-4.5453,-4.5494,-4.5509,-4.552,-4.5531,-4.5579,-4.5597,-4.54,-4.54,-4.54,0,0,-4.514,-4.5149,-4.5179,-4.5223,-4.5236,-4.5282,-4.5215,-4.5267,-4.5301,-4.5247,-4.5314,-4.5317,-4.5335,-4.5416,-4.5452,-4.5423,-4.5585,-4.5531,-4.554,-4.5544,-4.5589,-4.5608,-4.5625,-4.5406,-4.5405,-4.5404,0,0,-4.5265,-4.5277,-4.5342,-4.5355,-4.5375,-4.5368,-4.5383,-4.5395,-4.5395,-4.5462,-4.5422,-4.5461,-4.5527,-4.5542,-4.5558,-4.5687,-4.5656,-4.5699,-4.5775,-4.5822,-4.5837,-4.5851,-4.5897,-4.5914,-4.5709,-4.571,-4.571,0,-4.5332,-4.5401,-4.5378,-4.5433,-4.5453,-4.5407,-4.5472,-4.5486,-4.5516,-4.5531,-4.5497,-4.5579,-4.5588,-4.5672,-4.5704,-4.5718,-4.5734,-4.5698,-4.5837,-4.5851,-4.5863,-4.5907,-4.5924,-4.5715,-4.5714,-4.5714,-4.5713,0,-4.5482,-4.553,-4.5579,-4.5611,-4.5636,-4.5696,-4.5681,-4.571,-4.569,-4.5686,-4.5754,-4.5763,-4.5798,-4.5817,-4.5798,-4.5898,-4.5879,-4.5842,-4.5782,-4.5887,-4.5928,-4.5945,-4.5722,-4.572,-4.5719,-4.5718,0,0,-4.5657,-4.5674,-4.5693,-4.5706,-4.5724,-4.5761,-4.5817,-4.5853,-4.5878,-4.5899,-4.5946,-4.6002,-4.5968,-4.5986,-4.5968,-4.601,-4.6112,-4.5967,-4.5967,-4.5994,-4.6222,-4.6251,-4.6271,-4.609,-4.6094,-4.6096,-4.6221,0,-4.5782,-4.5881,-4.5862,-4.5958,-4.6002,-4.5958,-4.6007,-4.6023,-4.602,-4.6056,-4.6052,-4.6093,-4.6044,-4.6055,-4.6094,-4.6091,-4.6157,-4.6082,-4.6133,-4.6135,-4.6131,-4.6292,-4.6322,-4.644,-4.6237,-4.6239,-4.6241,0,-4.5942,-4.597,-4.6071,-4.6082,-4.6099,-4.6144,-4.6175,-4.621,-4.6226,-4.6221,-4.6241,-4.6215,-4.627,-4.6209,-4.6284,-4.6233,-4.6252,-4.6254,-4.6258,-4.6263,-4.6195,-4.6302,-4.6477,-4.6495,-4.6266,-4.6264,-4.6262,0,-4.606,-4.6123,-4.6192,-4.6204,-4.6218,-4.6251,-4.6258,-4.6271,-4.6293,-4.632,-4.6334,-4.6366,-4.6384,-4.6408,-4.6391,-4.6348,-4.6469,-4.6407,-4.6466,-4.6467,-4.6494,-4.6493,-4.6676,-4.6506,-4.6506,-4.6505,-4.6505,0,-4.6202,-4.6266,-4.6245,-4.6288,-4.6357,-4.6333,-4.6402,-4.6404,-4.6416,-4.6457,-4.642,-4.6459,-4.6434,-4.647,-4.6457,-4.6521,-4.6529,-4.6526,-4.6522,-4.653,-4.6531,-4.6543,-4.6535,-4.651,-4.6509,-4.6508,-4.6507,0,-4.6347,-4.6336,-4.6408,-4.6415,-4.6418,-4.6469,-4.6474,-4.6513,-4.6507,-4.6559,-4.657,-4.656,-4.6601,-4.6586,-4.663,-4.6621,-4.6703,-4.6687,-4.6698,-4.6694,-4.6755,-4.675,-4.6953,-4.6979,-4.6791,-4.6793,-4.6794,0,-4.6439,-4.6487,-4.6499,-4.6524,-4.6534,-4.6575,-4.6598,-4.6576,-4.6601,-4.6623,-4.6659,-4.6697,-4.6726,-4.6794,-4.679,-4.6823,-4.6808,-4.6877,-4.6813,-4.682,-4.681,-4.6808,-4.6813,-4.6891,-4.6893,-4.6895,-4.6896,0,-4.6603,-4.6595,-4.663,-4.6663,-4.6692,-4.6716,-4.6737,-4.676,-4.6738,-4.6768,-4.681,-4.6833,-4.6877,-4.6916,-4.6945,-4.6951,-4.692,-4.6916,-4.6932,-4.6941,-4.6945,-4.6944,-4.6734,-4.6912,-4.691,-4.6909,-4.6908,-4.6908,-4.6725,-4.6765,-4.6781,-4.682,-4.6834,-4.6854,-4.6891,-4.6889,-4.6924,-4.696,-4.6944,-4.6992,-4.7006,-4.7042,-4.7052,-4.7089,-4.7063,-4.7085,-4.7091,-4.7097,-4.7105,-4.6939,-4.7094,-4.7094,-4.7093,-4.7093,-4.7093,0,-4.6888,-4.6895,-4.6932,-4.6963,-4.6994,-4.6963,-4.6984,-4.7012,-4.7055,-4.7071,-4.7101,-4.7149,-4.7185,-4.7184,-4.7217,-4.7247,-4.7234,-4.7257,-4.7255,-4.7257,-4.7127,-4.7111,-4.7267,-4.7267,-4.7267,-4.7267,-4.7267,-4.7267,-4.6977,-4.7044,-4.7037,-4.711,-4.7116,-4.7165,-4.7179,-4.7198,-4.721,-4.7266,-4.7296,-4.7295,-4.7304,-4.7337,-4.7369,-4.7368,-4.7382,-4.741,-4.7404,-4.7283,-4.7266,-4.7249,-4.7234,-4.7414,-4.7414,-4.753,-4.7531,-4.7532]},{"header":{"parameterUnit":"m.s-1","parameterCategory":1,"la1":30.2991,"la2":30.254,"lo1":-89.0895,"lo2":-89.0444,"dy":0.0017,"dx":0.0017,"nx":28,"ny":28,"refTime":"2024-03-16T03:00:00:Z","depth":0,"parameterNumber":3,"parameterNumberName":"V-component_of_WINDS"},"data":[0,0,0,0,0,0,0,0,0,0,0,0,0,0,0,0,0,0,0,0,0,0,0,0,0,0,0,0,0,0,0,0,0,0,0,0,0,0,0,0,0,0,0,0,0,0,0,0,0,0,0,0,0,0,0,0,0,0,-2.7644,-2.7644,0,-2.767,-2.767,-2.7671,-2.7643,-2.7642,-2.7641,-2.764,-2.7667,-2.7669,-2.767,0,0,0,0,0,0,0,0,0,0,0,0,0,-2.757,-2.7571,-2.7644,-2.7644,-2.7645,-2.767,-2.767,-2.7671,-2.7643,-2.7642,-2.7641,-2.7639,-2.7666,-2.7668,-2.7671,0,0,0,0,0,0,0,0,0,0,0,0,0,-2.76,-2.7572,-2.7644,-2.7634,-2.7633,-2.767,-2.767,-2.7671,-2.7643,-2.7642,-2.764,-2.7639,-2.7666,-2.7668,-2.7671,-2.7719,0,0,-2.7679,-2.768,0,0,0,0,0,0,0,0,-2.7598,-2.7602,-2.7635,-2.7635,-2.7634,-2.7652,-2.7654,-2.7687,-2.7644,-2.764,-2.764,-2.7638,-2.7663,-2.7666,-2.7674,-2.772,-2.7721,-2.7679,-2.768,-2.7682,-2.7682,0,0,0,0,0,0,0,-2.7596,-2.7601,-2.7654,-2.7636,-2.7635,-2.7628,-2.763,-2.766,-2.766,-2.764,-2.7638,-2.7641,-2.7663,-2.7672,-2.7675,-2.7721,-2.7679,-2.7681,-2.7683,-2.7684,-2.7807,-2.7809,0,0,0,0,0,0,-2.7595,-2.76,-2.7654,-2.7655,-2.7612,-2.7631,-2.7633,-2.7648,-2.766,-2.766,-2.7643,-2.764,-2.7668,-2.7672,-2.7676,-2.7733,-2.7682,-2.7684,-2.7685,-2.7805,-2.7807,-2.7809,0,0,0,0,0,0,-2.7594,-2.76,-2.7652,-2.7627,-2.7633,-2.7634,-2.765,-2.7649,-2.7658,-2.7662,-2.7662,-2.7652,-2.7667,-2.7672,-2.7708,-2.7733,-2.7685,-2.7687,-2.7803,-2.7806,-2.7808,-2.7847,0,0,0,0,0,0,-2.7592,-2.76,-2.7618,-2.7627,-2.7634,-2.7685,-2.7651,-2.7651,-2.7663,-2.7659,-2.7671,-2.7671,-2.7666,-2.7704,-2.7711,-2.7736,-2.7689,-2.7801,-2.7805,-2.7808,-2.7844,-2.7851,-2.7857,0,0,0,0,0,-2.7589,-2.7628,-2.7619,-2.7626,-2.7658,-2.7686,-2.769,-2.7684,-2.7665,-2.7683,-2.7685,-2.7671,-2.7729,-2.7708,-2.7715,-2.7742,-2.78,-2.7804,-2.7807,-2.7841,-2.7849,-2.7857,0,0,0,0,0,0,-2.7623,-2.7629,-2.762,-2.7663,-2.7674,-2.7682,-2.7705,-2.7693,-2.771,-2.7707,-2.7698,-2.77,-2.7739,-2.7743,-2.772,-2.7788,-2.7761,-2.7767,-2.7784,-2.7792,-2.7799,-2.7798,-2.7692,0,0,0,0,0,-2.7635,-2.7658,-2.7662,-2.77,-2.7706,-2.7705,-2.7717,-2.7711,-2.7722,-2.7727,-2.7732,-2.7743,-2.7764,-2.7778,-2.7797,-2.7843,-2.7846,-2.7865,-2.7871,-2.7877,-2.7882,-2.7907,-2.7916,-2.7822,-2.7822,-2.7822,0,0,-2.7661,-2.7667,-2.7683,-2.7707,-2.7715,-2.7739,-2.7709,-2.7735,-2.7753,-2.7731,-2.7766,-2.7769,-2.7781,-2.7823,-2.7841,-2.7828,-2.7908,-2.7882,-2.7886,-2.7888,-2.7912,-2.7921,-2.7928,-2.7825,-2.7824,-2.7824,0,0,-2.7721,-2.7728,-2.776,-2.7769,-2.7781,-2.7779,-2.7787,-2.7796,-2.7797,-2.7831,-2.7815,-2.7836,-2.7872,-2.7881,-2.7891,-2.7952,-2.794,-2.7959,-2.7994,-2.8018,-2.8026,-2.8032,-2.8055,-2.8063,-2.7964,-2.7964,-2.7964,0,-2.7752,-2.7788,-2.7778,-2.7806,-2.7817,-2.7797,-2.783,-2.7838,-2.7856,-2.7865,-2.7849,-2.7893,-2.79,-2.7944,-2.7958,-2.7966,-2.7975,-2.7958,-2.8025,-2.8032,-2.8037,-2.8059,-2.8068,-2.7966,-2.7966,-2.7966,-2.7965,0,-2.7825,-2.785,-2.7874,-2.7892,-2.7906,-2.7936,-2.7931,-2.7946,-2.7938,-2.7938,-2.7973,-2.798,-2.8,-2.8009,-2.8002,-2.8052,-2.8043,-2.8026,-2.7999,-2.8049,-2.8069,-2.8077,-2.7969,-2.7969,-2.7968,-2.7967,0,0,-2.7909,-2.792,-2.793,-2.7937,-2.7949,-2.7968,-2.7996,-2.8016,-2.8029,-2.8041,-2.8065,-2.8095,-2.808,-2.8091,-2.8084,-2.8105,-2.8154,-2.8085,-2.8086,-2.8099,-2.821,-2.8223,-2.8233,-2.8145,-2.8146,-2.8147,-2.8209,0,-2.797,-2.8021,-2.8012,-2.8061,-2.8084,-2.8064,-2.8089,-2.8098,-2.8098,-2.8117,-2.8117,-2.8139,-2.8116,-2.8123,-2.8142,-2.8144,-2.8176,-2.8139,-2.8168,-2.8169,-2.8167,-2.8244,-2.8259,-2.8317,-2.8217,-2.8218,-2.8219,0,-2.8049,-2.8064,-2.8115,-2.8122,-2.8131,-2.8154,-2.8171,-2.8189,-2.8199,-2.8197,-2.8209,-2.8198,-2.8226,-2.8197,-2.8236,-2.8211,-2.8222,-2.8224,-2.8226,-2.823,-2.8199,-2.8251,-2.8335,-2.8344,-2.8231,-2.823,-2.8229,0,-2.8106,-2.8139,-2.8174,-2.8181,-2.819,-2.8206,-2.821,-2.8219,-2.8231,-2.8245,-2.8253,-2.8271,-2.8281,-2.8295,-2.8289,-2.8268,-2.8329,-2.83,-2.833,-2.833,-2.8345,-2.8345,-2.8433,-2.8349,-2.8349,-2.8349,-2.8349,0,-2.8176,-2.8209,-2.82,-2.8221,-2.8256,-2.8246,-2.8281,-2.8283,-2.829,-2.8312,-2.8295,-2.8316,-2.8305,-2.8325,-2.832,-2.8354,-2.8358,-2.8358,-2.8357,-2.8361,-2.8361,-2.837,-2.8366,-2.8351,-2.8351,-2.835,-2.835,0,-2.8248,-2.8243,-2.828,-2.8284,-2.8286,-2.8312,-2.8316,-2.8336,-2.8334,-2.8362,-2.8367,-2.8365,-2.8387,-2.8381,-2.8406,-2.8402,-2.8445,-2.8438,-2.8442,-2.8441,-2.8472,-2.847,-2.857,-2.8584,-2.849,-2.849,-2.8491,0,-2.8293,-2.8318,-2.8325,-2.8338,-2.8344,-2.8365,-2.8377,-2.8367,-2.838,-2.8393,-2.8411,-2.8432,-2.8448,-2.8484,-2.8485,-2.8503,-2.8497,-2.8531,-2.85,-2.8503,-2.8499,-2.8499,-2.8502,-2.8538,-2.8539,-2.854,-2.8541,0,-2.8376,-2.8372,-2.839,-2.8407,-2.8422,-2.8435,-2.8447,-2.8458,-2.8449,-2.8465,-2.8487,-2.8499,-2.8524,-2.8545,-2.8561,-2.8566,-2.8552,-2.855,-2.8558,-2.8564,-2.8566,-2.8566,-2.8461,-2.8548,-2.8548,-2.8547,-2.8547,-2.8546,-2.8437,-2.8457,-2.8466,-2.8486,-2.8493,-2.8504,-2.8523,-2.8523,-2.8542,-2.8561,-2.8553,-2.8579,-2.8588,-2.8609,-2.8615,-2.8635,-2.8622,-2.8634,-2.8637,-2.8641,-2.8645,-2.8561,-2.8638,-2.8638,-2.8637,-2.8637,-2.8637,0,-2.8519,-2.8523,-2.8542,-2.8558,-2.8575,-2.8559,-2.857,-2.8585,-2.8608,-2.8617,-2.8633,-2.8658,-2.8678,-2.8679,-2.8698,-2.8714,-2.8708,-2.8719,-2.8719,-2.872,-2.8655,-2.8647,-2.8723,-2.8723,-2.8723,-2.8723,-2.8723,-2.8723,-2.8564,-2.8598,-2.8595,-2.8633,-2.8636,-2.8662,-2.867,-2.8679,-2.8686,-2.8716,-2.8732,-2.8732,-2.8738,-2.8757,-2.8774,-2.8774,-2.8782,-2.8796,-2.8794,-2.8733,-2.8725,-2.8717,-2.8709,-2.8798,-2.8798,-2.8858,-2.8859,-2.8859]}]]